Aérodrome :
LOGIN :

S'inscrire | Disclaimer

   EN    FR    IT 

 










Légende :    VFR   VFR Marginal   IFR   IFR Intensif   IFR Très Intensif
Visi : 
Plafond : 
>= 8 km
>= 3000ft
5 à 8 km
1000 à 3000 ft
1500m à 5 km
500 à 1000 ft
800 à 1500m
200 à 500 ft
< 800m
< 200 ft
Symboles :   Orages  Brouillard  Fortes neiges  Fortes précipitations  Vent > 20 kt
SIGMETs :   Divers  Orages  Givrage  Turbulence  Onde Orograph.  Cendres Volcan.







- Altitude de l'aérodrome : 38 ft
- Code IATA : BOH
- Voir les cartes d'approche


EGHH - Bournemouth

DERNIER METAR :
  • 221750Z 09009KT 4000 -RA BR SCT005 BKN012 12/12 Q1011 RERA

METARs EXPIRÉS :
  • 221720Z 10012KT 3500 RA BR BKN005 BKN012 12/12 Q1011
  • 221650Z 10011KT 7000 -RA BKN004 BKN012 12/12 Q1012
  • 221620Z 12010KT 2800 RA BR BKN004 12/12 Q1012
  • 221550Z 12011KT 2800 RA BR BKN003 12/12 Q1012
  • 221520Z 10010KT 2800 RA BR BKN003 12/11 Q1013

TAF AMD TAF EGHH
Valide du 22 à 16h jusqu'au 23 à 00h UTC


221657Z 2216/2224 13010KT 8000 -RA SCT020 BKN045
TEMPO 2216/2224 4500 RA BKN010
PROB30
TEMPO 2216/2220 +RA BKN004
BECMG 2217/2220 04012KT
ATIS : +44 1202 364 151
Météo : +44 1202 364 158 (TAF)
Pas de NOTAMs connus pour ce terrain.



MET'MAP, la Météo Aéronautique d'un coup d'oeil ! - Copyright ORBIFLY Décembre 2007 - Disclaimer

ORBIFLY MET'MAP TEAM :

Programmation & Développement : Alexandra Zaïnal
Conception & Développement : Baudouin d'Aumeries
Co-Programmation & Développement : Marc-Olivier Méhu
Soutien technique & logistique : Manuel Goepfert

Contact : metmap@orbifly.com




SOURCES & CREDITS :

   NOAA